Theta_e
314 313 315 318 319 320 323 324 320 319 319 313 314 315 315 318 318 319 320 321 324 324 320 323 331 330 328 327 328 328 329 331 329 327 331 335 335 337 337 336 339 338 338 338 340 340 338 337 337 337 329 322 321 323 331 334 333 333 332 332 332 333 334 335 336 336 337 337 336 336 335 335 334 334 334 335 334 333 333 332 331 331 332 332 331 330 331 330 330 331 331 331 330 330 330 331 331
314 314 317 320 320 321 323 324 320 317 315 311 314 316 315 318 318 320 322 322 323 319 318 325 330 328 325 324 325 328 330 329 329 332 335 335 336 338 336 337 339 338 338 339 340 340 340 337 336 333 325 321 319 321 331 334 333 333 332 332 332 333 333 333 335 336 337 335 335 335 334 334 333 332 332 333 334 333 333 332 331 331 332 332 331 330 331 330 330 330 330 330 330 330 330 331 330
313 315 319 321 322 324 324 323 319 314 312 310 313 317 316 318 320 320 321 320 321 319 322 326 327 326 324 323 325 329 330 328 330 335 335 336 337 337 337 338 339 339 338 339 340 340 340 337 334 330 323 319 317 320 328 333 333 332 332 332 331 332 332 333 335 335 335 334 334 334 333 333 331 329 328 331 334 333 332 331 330 331 332 332 332 331 330 331 330 330 330 330 330 330 329 330 330
314 317 319 322 323 325 324 323 320 315 312 310 312 316 317 318 321 318 318 320 321 321 324 326 326 324 322 325 326 328 331 331 333 336 335 337 338 337 337 338 339 339 339 339 340 340 340 337 332 327 322 318 320 323 325 330 333 332 332 332 331 332 332 334 334 334 335 334 334 334 333 333 332 330 329 331 332 332 331 330 330 331 332 332 332 330 329 330 329 329 329 328 329 329 329 329 329
317 317 318 322 324 324 323 322 320 316 313 313 312 316 318 318 319 317 318 321 320 319 321 325 327 325 325 327 327 328 332 332 334 336 337 337 338 337 337 338 339 339 340 340 340 340 339 336 330 325 322 317 321 326 327 328 332 332 332 332 331 332 333 334 334 334 336 336 335 334 333 332 331 329 329 331 331 330 330 329 329 330 331 332 332 331 330 330 330 330 329 329 329 328 329 328 329
318 318 318 320 321 321 322 319 317 316 316 316 315 316 317 316 318 319 320 321 318 317 317 321 325 325 327 329 328 331 333 333 335 336 337 338 337 337 337 338 339 340 340 340 340 340 339 336 330 325 321 318 319 323 327 329 330 332 332 332 332 331 332 333 334 335 335 335 334 333 332 331 328 328 329 330 330 329 329 329 329 329 331 332 332 331 331 330 330 330 328 328 329 327 327 327 328
320 320 321 321 319 320 322 318 316 317 316 315 316 316 316 315 319 320 321 320 318 316 313 318 322 324 326 328 331 333 332 334 335 336 337 337 337 337 338 337 339 340 340 340 340 340 339 336 331 326 321 319 317 319 324 326 328 331 333 332 332 331 332 332 333 333 333 333 332 332 331 330 327 327 330 329 329 329 328 329 329 330 330 331 331 332 332 330 329 328 327 328 328 327 327 327 328
320 321 322 322 320 321 321 318 318 318 314 312 313 314 315 315 318 321 320 319 318 317 315 318 321 322 324 325 331 334 332 334 334 336 336 336 337 337 337 337 338 340 340 340 340 340 338 337 334 327 322 319 319 320 320 321 324 329 332 332 332 331 331 333 332 331 331 331 331 330 329 330 327 326 328 328 328 328 328 329 329 330 331 331 331 332 332 331 330 328 327 328 328 327 327 327 328
318 319 321 322 320 319 318 317 318 317 315 314 313 314 315 315 317 321 320 318 316 316 319 321 319 319 323 325 332 334 334 335 333 336 336 337 337 337 337 337 337 339 340 339 339 339 338 337 335 329 323 321 320 320 317 316 319 324 329 331 332 332 332 333 331 329 330 330 329 329 330 331 329 326 326 327 328 328 328 329 329 330 330 330 331 332 332 331 330 327 327 328 328 327 326 327 328
319 319 321 322 319 317 315 315 317 316 315 315 314 314 314 313 317 321 320 318 315 316 319 319 317 317 324 328 332 333 334 334 334 336 336 337 336 337 337 337 338 339 340 339 339 340 339 337 336 332 324 322 321 319 317 314 315 319 325 329 331 331 332 332 331 330 329 329 328 330 332 332 331 327 325 326 327 328 328 329 329 330 329 330 331 331 331 331 329 326 327 327 326 326 327 327 328
321 319 321 321 317 314 313 315 316 317 316 315 315 313 313 313 317 320 318 317 314 317 318 316 317 320 324 328 330 331 333 334 335 337 336 337 336 336 337 337 338 338 339 339 339 339 340 337 336 334 327 323 322 319 317 315 314 315 320 324 327 330 331 331 331 330 329 329 329 331 332 332 331 328 325 324 327 329 329 327 328 329 329 330 331 331 330 330 328 326 326 326 326 326 327 327 327
321 321 321 319 316 315 315 315 316 318 318 316 316 313 312 313 317 319 317 317 314 317 319 318 320 323 324 326 328 331 332 336 336 337 337 337 336 336 336 337 337 338 339 338 339 339 339 338 337 336 331 326 323 322 319 317 315 314 316 318 321 327 331 331 330 330 329 329 329 331 332 332 331 329 325 323 326 329 329 326 327 329 329 330 331 330 330 329 327 325 326 327 326 326 327 326 326
321 322 322 318 317 317 316 316 316 319 318 317 316 313 311 313 318 318 317 317 315 318 318 317 320 321 322 324 327 330 334 337 336 337 337 336 336 336 335 336 337 337 339 338 339 338 339 339 337 337 333 327 324 323 322 319 317 315 314 314 317 323 328 329 329 329 328 327 327 329 331 331 330 328 325 323 325 329 329 327 326 327 329 330 330 330 330 330 327 325 326 327 326 327 327 326 325
322 322 321 319 316 317 317 317 317 317 316 317 315 311 311 314 315 315 316 316 316 317 314 314 320 321 320 322 325 329 335 337 336 337 336 337 336 336 335 336 337 337 338 338 338 338 339 339 338 337 334 331 327 325 324 322 319 316 314 313 314 318 324 327 327 328 328 326 325 327 329 328 327 326 326 324 324 328 329 327 325 325 328 330 330 330 330 329 326 324 326 327 327 327 327 326 325
320 319 321 320 316 316 316 317 318 316 315 317 313 311 312 311 310 313 315 316 315 312 312 315 318 320 319 319 324 328 337 337 336 337 337 337 336 336 336 336 337 337 338 338 338 338 338 338 338 338 336 335 332 330 328 324 321 319 315 314 313 315 321 324 324 326 327 325 323 325 325 325 325 324 325 324 323 328 328 328 326 324 325 328 329 329 329 328 325 324 325 326 327 327 327 326 325
318 320 321 320 317 316 316 316 318 316 315 316 310 310 314 311 308 312 312 312 314 311 314 318 316 319 317 318 324 330 338 337 336 337 336 336 335 336 335 336 336 337 337 337 337 338 338 338 338 337 337 336 334 334 332 328 324 321 318 315 314 314 316 320 321 323 325 324 322 323 323 323 324 322 323 324 323 327 328 328 327 325 323 325 327 328 327 326 324 323 324 325 326 326 327 326 326
317 321 320 318 317 316 316 317 317 315 315 314 309 310 316 313 309 310 308 310 314 313 315 316 317 320 319 321 324 329 337 337 336 337 336 337 335 336 336 336 336 336 337 336 337 338 338 338 338 338 337 337 336 335 334 331 327 323 321 317 315 314 314 316 318 321 322 323 322 322 324 326 326 325 324 324 322 325 327 327 327 325 323 323 325 326 326 325 323 323 324 324 325 325 326 326 326
319 322 319 316 317 317 317 318 316 316 316 314 310 312 316 315 311 310 310 312 313 313 314 315 317 321 323 325 324 329 337 336 337 337 337 337 336 336 336 336 336 336 336 336 337 337 338 338 338 338 337 337 337 336 334 333 330 327 325 321 318 316 314 315 316 319 319 321 322 322 326 328 328 327 326 324 323 323 325 326 326 325 324 322 323 325 325 324 324 323 323 324 325 325 326 326 326
320 321 319 318 320 317 314 316 315 314 316 314 311 311 314 315 312 311 313 314 313 314 315 315 317 320 323 326 327 331 336 337 337 337 337 337 337 337 336 336 336 336 336 336 336 336 337 338 338 338 338 337 336 336 335 334 332 331 330 326 323 320 317 315 315 317 317 319 320 321 326 326 325 327 324 323 322 320 321 323 324 324 324 323 321 322 324 324 324 323 323 323 324 325 325 325 325
318 319 320 320 319 315 311 313 313 311 313 315 312 310 311 312 311 311 313 315 313 314 315 315 316 318 323 328 331 333 335 338 337 338 338 338 338 337 337 336 336 336 336 336 336 336 336 337 338 337 337 337 336 335 335 335 334 333 332 330 328 325 320 317 316 316 316 317 318 322 324 321 322 323 321 321 322 320 319 318 320 321 323 322 319 322 323 323 323 322 322 323 324 324 325 325 325
317 318 319 318 316 315 312 310 310 309 310 313 312 310 312 310 310 312 314 314 314 315 315 315 315 315 323 328 332 334 336 337 337 338 338 338 338 337 337 337 336 336 336 336 336 336 336 336 337 337 336 336 336 335 335 335 334 334 333 332 331 328 324 320 319 317 317 317 318 321 320 317 320 322 319 320 323 323 320 317 318 320 322 321 320 322 323 323 323 322 323 323 324 324 324 324 324
316 314 314 313 313 315 311 308 309 308 309 312 311 312 312 310 310 312 313 315 315 314 312 313 313 314 323 328 332 334 335 337 337 338 338 338 338 337 338 337 337 336 336 336 336 336 336 336 336 336 336 335 336 335 335 335 335 334 333 332 332 330 327 324 322 320 318 317 317 318 317 317 319 321 319 319 321 322 321 320 319 318 319 319 319 322 323 322 322 323 323 323 323 323 323 323 323
316 313 310 310 310 313 309 307 308 307 310 312 311 312 311 311 312 310 311 314 314 310 309 310 308 315 326 329 332 333 334 336 336 338 338 338 338 338 338 337 337 337 336 336 336 336 336 336 337 336 336 336 336 335 335 335 335 335 334 333 332 331 330 328 326 323 321 320 318 317 317 318 319 320 319 318 318 320 322 321 319 316 316 317 318 320 321 320 321 321 322 321 321 321 321 321 322
316 314 310 309 309 310 307 306 306 306 310 310 309 310 310 313 313 308 309 313 312 307 308 310 307 316 328 329 331 334 334 336 336 337 337 337 337 337 338 337 337 337 336 336 336 336 336 336 337 336 336 336 336 335 335 335 335 335 335 333 332 331 331 330 329 327 325 323 320 319 318 319 320 320 318 317 317 319 321 319 317 315 315 314 314 317 319 320 320 320 320 320 320 320 320 320 320
316 314 310 309 308 308 305 305 305 306 308 307 308 311 310 310 310 308 311 312 309 306 310 315 314 321 327 327 331 334 334 336 335 335 336 335 336 336 337 337 337 337 336 336 336 336 336 336 336 336 336 336 336 336 335 335 335 335 334 334 333 332 331 331 330 329 328 326 324 322 320 319 320 320 319 318 318 318 319 316 316 315 314 312 312 314 316 320 321 320 320 319 319 319 319 319 319
314 312 310 309 309 307 306 307 307 307 307 307 310 312 309 307 307 310 313 309 306 307 313 319 321 323 325 327 330 334 334 335 335 334 335 334 335 334 335 336 336 337 336 336 336 336 336 336 336 336 336 336 336 336 336 335 335 335 334 334 334 333 332 331 330 330 330 329 328 326 323 321 320 320 319 319 318 318 318 316 316 316 313 312 311 312 312 317 320 320 320 319 319 319 319 319 319
311 310 310 309 309 308 308 309 308 308 308 309 311 312 309 307 308 313 311 305 305 308 316 320 322 321 325 327 329 333 334 334 334 333 334 333 333 334 333 334 335 335 336 335 336 336 336 336 336 336 336 336 336 336 336 336 336 335 335 334 334 334 333 332 331 330 330 329 329 329 327 325 322 321 321 320 319 318 318 317 317 317 315 313 312 311 310 312 317 319 319 319 319 320 320 319 319
310 311 311 309 309 309 309 310 309 310 310 309 311 312 310 308 310 314 310 304 306 310 316 323 325 323 324 327 328 331 333 333 334 332 333 333 333 333 334 334 334 334 335 335 335 335 335 336 336 336 336 336 336 336 336 336 336 335 335 334 334 334 333 333 331 331 330 329 329 330 329 328 326 324 323 323 322 320 319 318 318 317 317 315 313 312 310 309 312 315 317 318 318 319 319 319 319
310 312 314 311 311 312 310 310 309 310 311 308 310 311 312 312 313 313 307 304 306 309 313 322 326 323 321 325 326 329 332 332 333 332 333 333 333 334 334 335 334 334 334 334 335 334 335 335 335 336 336 336 335 336 336 335 336 335 335 334 334 334 333 333 332 331 330 329 329 329 330 329 328 327 326 326 325 323 322 321 319 318 317 317 316 314 312 310 309 311 314 316 317 318 319 319 319
311 311 313 312 312 313 310 309 309 311 310 306 309 310 312 314 312 309 306 305 307 310 312 314 319 319 319 322 323 326 329 331 331 332 333 333 335 335 335 336 334 334 334 334 334 334 334 334 334 335 335 335 335 335 335 335 335 335 335 335 334 334 333 333 332 332 331 330 329 329 329 329 329 328 328 328 327 326 326 324 323 321 319 318 317 316 314 312 311 311 312 314 316 317 318 319 319
312 311 313 314 313 312 310 310 311 311 309 307 309 310 312 313 310 307 306 306 308 311 312 311 311 313 315 319 320 323 326 329 330 331 333 333 334 334 334 335 334 335 334 334 334 334 334 333 334 334 334 334 334 335 334 335 335 334 335 335 334 334 333 333 332 332 331 330 329 329 329 329 329 329 329 329 328 328 327 327 327 324 323 321 319 317 315 314 313 312 311 313 315 315 317 318 318
311 311 312 314 312 311 311 310 310 312 310 308 310 310 312 313 311 307 305 306 309 310 312 311 311 310 310 313 316 319 322 325 327 328 330 331 332 332 332 333 334 333 333 333 333 333 334 334 334 333 333 334 333 334 333 334 334 334 334 334 334 334 333 333 332 332 331 330 329 329 330 331 331 330 330 330 329 329 328 328 329 328 327 325 322 319 317 315 314 313 312 312 314 313 315 315 315
311 311 314 314 312 312 311 310 308 310 312 310 310 311 312 314 312 308 306 306 308 311 311 312 312 311 310 310 311 313 315 318 321 323 325 327 329 329 330 331 332 332 332 333 333 333 334 334 333 333 333 333 333 333 333 333 334 334 334 334 334 334 333 333 332 333 332 331 331 330 330 330 331 331 331 331 331 330 329 329 329 329 329 327 325 323 321 319 318 316 314 313 313 313 314 313 313
312 312 314 313 311 310 310 311 309 308 311 312 311 311 312 313 312 310 308 307 308 310 312 313 313 312 312 311 310 309 310 312 314 318 319 321 325 326 327 328 329 330 330 331 332 332 333 333 333 333 333 333 333 333 333 333 333 333 334 333 334 334 334 334 333 333 333 332 332 331 330 329 330 330 331 331 331 331 330 329 329 329 329 328 327 326 325 324 322 320 319 318 316 314 314 315 315
312 312 312 311 311 310 310 311 310 309 312 313 312 312 313 313 312 312 311 308 308 311 312 312 312 312 312 312 311 311 310 311 312 313 313 313 315 318 321 324 326 327 328 328 330 330 331 332 332 332 333 333 333 333 333 332 332 332 332 333 333 333 334 334 334 333 333 333 333 333 332 330 330 330 330 329 330 331 331 330 329 328 329 328 327 326 326 325 323 323 322 321 318 315 314 314 315
313 314 313 312 311 310 310 311 308 309 312 313 313 312 313 314 313 313 312 309 309 311 311 311 311 311 312 312 312 312 312 313 313 311 309 309 309 310 311 315 319 322 324 325 327 327 329 330 331 331 331 332 332 333 332 332 332 332 332 332 332 333 333 334 335 334 334 334 333 333 333 332 331 330 329 329 330 331 330 330 330 329 328 328 326 324 325 326 325 325 324 321 318 315 315 314 313
313 313 314 314 313 310 310 311 308 307 312 313 313 313 313 313 313 314 313 310 310 311 311 312 313 313 313 313 313 313 313 314 312 308 307 308 307 307 307 308 310 313 317 321 324 325 326 327 329 330 330 331 331 332 332 332 332 332 331 331 331 331 332 332 333 334 334 334 333 332 332 332 331 330 330 331 331 331 329 329 330 330 329 328 327 326 326 327 327 325 323 321 317 315 315 315 314
312 311 313 313 313 311 310 311 308 306 311 313 311 312 313 314 314 314 313 311 311 312 312 313 313 313 313 312 313 313 312 311 310 309 308 307 306 306 307 307 307 308 311 314 317 320 324 326 327 328 329 329 330 331 332 332 332 332 332 331 332 331 331 331 332 333 333 333 333 333 331 331 330 331 331 331 331 331 330 329 329 330 330 329 329 328 326 325 325 324 322 320 318 317 316 316 314
312 312 312 312 312 312 310 310 309 307 311 313 312 312 314 315 315 314 314 313 313 312 311 311 312 312 312 312 312 312 311 311 311 310 309 307 306 305 305 306 307 307 308 309 310 313 318 321 323 326 327 328 328 329 330 331 331 332 332 332 332 332 332 331 330 331 332 333 334 334 333 332 330 330 330 329 329 329 329 328 328 328 329 329 328 327 326 324 324 324 322 320 319 317 315 314 314
313 313 311 312 313 313 310 311 309 307 308 310 312 313 315 315 314 314 311 309 309 307 305 306 308 309 310 310 310 308 308 310 310 310 310 308 307 306 306 306 306 306 307 307 307 309 311 314 317 321 324 326 327 328 328 330 331 331 331 331 332 332 332 331 331 331 331 331 331 332 333 333 333 331 330 329 329 329 328 327 327 328 328 328 327 326 325 325 325 324 323 321 318 315 314 315 315
314 315 314 313 314 313 312 311 309 307 307 308 311 312 312 314 314 312 309 304 306 305 304 306 306 306 306 306 307 306 306 307 308 308 309 308 307 306 306 305 305 306 306 306 307 307 308 309 311 314 317 321 323 325 327 328 329 330 330 330 331 331 330 329 330 332 332 331 331 331 331 332 332 332 332 331 331 331 330 329 328 329 329 329 327 325 325 326 325 324 323 322 320 318 317 316 315
313 315 315 313 312 313 313 312 311 311 311 309 309 309 309 313 314 311 309 308 309 307 307 309 309 308 309 309 311 311 309 308 306 306 306 307 307 308 308 307 306 306 305 306 306 306 307 308 308 309 312 315 319 322 324 326 327 328 329 330 330 330 330 329 329 330 330 331 331 332 332 332 331 331 330 330 331 331 331 330 330 330 329 329 327 326 327 326 324 322 321 322 323 322 320 316 314
311 312 313 311 313 316 314 314 314 312 311 308 307 309 309 311 313 312 310 311 311 309 310 312 310 311 311 312 312 312 311 310 308 307 307 309 310 311 311 310 308 307 306 306 306 306 307 307 308 309 311 314 316 318 322 325 326 327 328 328 329 330 329 329 329 329 329 329 329 330 330 330 330 330 330 331 331 331 330 329 329 329 328 327 327 327 326 324 322 321 321 323 324 322 319 316 314
312 313 312 312 315 318 316 315 314 312 311 310 309 312 310 309 312 312 309 311 311 310 312 312 311 311 311 311 311 311 311 311 311 312 311 312 312 312 312 310 309 308 308 307 307 307 307 307 308 310 312 314 315 317 321 324 325 326 327 327 328 328 328 329 329 328 328 328 328 328 328 328 328 329 330 330 330 330 331 330 329 329 328 327 327 327 327 325 324 324 323 323 322 319 318 317 316
313 309 311 312 314 317 317 315 313 311 311 311 312 313 309 308 313 312 309 310 311 311 313 312 311 311 310 310 311 310 310 310 310 311 312 312 312 311 310 309 309 308 309 308 308 308 308 309 310 312 314 316 317 319 322 324 324 325 326 327 327 327 327 328 328 328 327 327 327 327 327 327 327 328 327 328 328 329 331 331 330 329 329 328 327 327 327 326 325 324 322 321 321 320 319 318 317
310 306 310 313 314 314 315 314 311 310 311 312 312 310 308 309 314 314 309 310 311 311 312 311 310 310 310 310 310 310 310 310 310 310 311 311 310 310 309 309 310 310 310 310 311 311 312 312 314 315 317 318 319 321 322 323 324 325 325 326 327 327 327 326 326 326 326 326 326 325 326 326 326 326 326 326 326 327 328 329 329 329 328 328 328 327 326 325 325 325 324 323 322 322 321 319 317
308 310 312 313 314 313 312 311 310 310 311 311 308 307 308 307 311 314 310 309 310 312 312 311 311 310 310 310 309 309 309 310 310 310 311 310 309 309 310 310 310 311 312 313 314 314 315 316 317 318 319 320 321 321 322 323 323 324 325 325 326 326 326 326 325 325 325 325 324 324 324 324 325 325 325 325 325 325 326 326 327 327 327 327 327 327 326 326 325 325 325 324 323 322 321 320 318
310 314 314 313 314 312 311 310 310 312 311 308 305 305 307 307 309 312 310 308 308 311 312 311 311 311 311 310 309 309 308 310 311 311 312 312 311 311 311 311 311 311 312 313 314 315 316 317 318 319 320 320 321 322 322 323 323 323 324 324 325 325 325 324 324 324 324 324 323 323 323 323 323 323 323 324 325 324 324 324 325 325 325 325 325 325 326 326 326 326 325 324 323 321 320 319 317
312 314 312 312 313 312 313 313 311 312 310 305 304 305 308 309 310 310 308 308 307 309 311 311 310 310 310 310 309 309 309 310 311 312 312 313 314 313 313 312 311 311 311 311 312 312 313 314 315 316 317 317 318 320 320 321 322 322 323 323 324 323 323 323 323 323 323 323 323 322 322 322 322 322 322 323 323 323 323 323 324 324 325 325 325 325 326 326 326 326 325 324 323 322 321 319 318
312 314 312 312 313 313 313 311 309 310 308 304 303 306 309 310 310 310 310 309 308 306 308 309 309 308 309 309 309 309 310 310 312 312 312 313 313 313 312 311 310 310 310 311 311 311 311 312 312 312 312 313 313 314 315 315 316 317 318 319 320 320 321 321 321 321 321 321 321 321 321 320 320 320 320 321 321 321 322 323 323 323 324 324 325 325 325 325 325 325 325 324 324 323 321 320 319
313 316 314 312 313 313 313 311 310 310 308 305 304 306 310 310 308 309 308 308 307 305 305 307 308 307 307 308 308 310 310 310 311 311 311 312 311 311 310 309 308 309 310 311 311 311 311 311 311 311 311 311 311 311 312 312 312 312 313 313 314 315 315 316 317 317 318 318 318 319 318 318 318 318 318 319 319 319 320 320 321 321 321 322 322 322 323 323 323 322 323 323 323 323 322 320 319
311 312 312 311 312 312 309 307 308 308 308 308 307 308 311 310 309 308 306 306 307 305 304 306 308 307 308 309 310 311 310 310 310 310 310 310 309 309 308 307 306 307 308 309 309 310 310 310 310 310 310 310 311 311 311 311 311 311 311 311 311 311 311 312 312 313 313 314 314 315 315 316 316 316 316 316 317 317 318 318 318 319 319 319 319 320 320 320 319 319 320 320 320 320 321 321 321
310 310 311 309 311 313 309 304 304 305 308 309 309 310 310 309 309 308 307 309 308 305 304 307 308 308 309 312 312 311 311 310 310 310 309 309 309 308 307 306 305 305 306 306 307 308 308 309 309 309 309 309 309 309 309 310 310 310 310 310 310 310 310 310 310 310 310 311 312 312 313 313 313 314 314 314 314 314 315 316 316 317 317 317 318 318 318 318 318 318 318 318 317 317 318 319 320
311 312 312 308 309 312 310 308 307 307 308 309 308 309 309 307 308 308 308 311 310 306 306 307 308 310 312 313 312 311 311 310 310 310 310 309 309 308 307 305 304 304 305 305 306 307 308 308 308 308 308 308 308 308 309 308 309 309 309 309 309 309 309 309 309 309 310 310 310 311 311 311 311 312 312 312 312 312 313 314 314 315 315 316 316 316 316 316 316 316 316 316 316 316 316 317 317
310 311 311 309 311 310 308 309 310 309 309 310 308 306 307 308 308 308 308 310 310 307 306 307 308 311 313 313 311 311 310 310 310 309 309 309 308 307 306 305 303 304 305 305 306 307 307 308 308 308 308 308 308 308 308 309 309 309 309 309 309 309 309 309 309 309 309 309 309 309 309 310 310 310 310 310 311 311 311 312 312 313 314 314 314 315 315 315 315 315 315 315 315 315 314 314 314
307 308 308 310 312 310 309 309 310 310 309 309 308 306 307 310 310 309 309 310 311 308 306 308 309 311 313 312 311 311 311 311 310 308 307 307 306 305 304 303 303 304 305 306 306 306 307 307 307 308 308 308 308 309 309 309 309 309 309 309 309 309 309 309 309 309 309 309 309 309 309 309 309 309 309 309 310 310 310 310 311 311 312 312 313 313 314 314 314 314 314 314 314 313 313 313 313
307 308 308 310 310 308 309 308 307 308 309 308 308 307 308 310 309 309 309 308 309 308 308 309 311 312 313 312 312 312 311 310 309 307 306 306 305 304 303 303 303 304 305 306 306 307 307 307 307 308 308 308 308 308 309 309 309 309 309 309 309 308 309 309 309 309 309 308 308 308 308 308 308 308 308 309 309 309 309 309 309 310 310 310 311 311 312 312 312 313 313 313 313 313 312 312 311
311 309 310 312 311 310 311 311 307 306 307 307 307 308 309 310 307 307 307 307 306 307 309 310 310 311 312 312 312 312 310 309 307 305 305 305 305 304 303 303 303 304 305 305 306 306 306 307 307 307 307 308 308 308 308 308 308 308 308 308 308 308 308 308 308 308 308 308 308 308 308 308 308 308 308 308 308 308 308 308 309 309 309 309 309 309 310 310 311 311 311 311 312 311 311 310 309
Wind_Speed
2 2 3 3 4 3 1 1 1 1 1 1 1 1 3 2 2 3 6 5 3 4 2 2 6 6 2 3 3 3 4 3 4 2 2 4 8 14 12 12 15 16 15 12 11 12 10 11 10 7 5 5 6 9 12 12 12 12 12 12 12 12 12 11 11 11 11 12 11 11 11 11 12 13 13 14 15 15 15 16 16 16 15 15 16 16 16 17 17 17 17 15 14 15 15 14 15
1 2 4 4 2 2 0 1 2 2 2 2 2 1 3 3 3 6 8 5 3 5 3 3 6 5 1 4 2 2 2 6 5 2 4 6 12 13 10 13 15 15 14 11 11 11 9 10 10 7 6 6 6 9 12 13 12 13 13 12 13 12 12 11 11 11 11 10 10 10 11 11 10 11 13 14 14 15 15 15 16 15 14 15 16 16 15 16 16 16 16 15 15 15 15 14 15
2 4 5 4 2 1 2 1 2 2 2 2 3 3 4 5 6 5 6 5 5 6 5 5 5 3 1 2 2 1 2 4 2 2 5 11 13 11 11 14 15 14 13 11 11 10 9 10 9 7 6 6 7 10 11 13 13 12 12 12 13 12 12 12 11 11 10 9 10 10 11 11 10 10 11 14 14 14 15 15 15 14 14 14 16 15 15 15 15 15 15 15 15 14 14 14 15
3 5 5 3 1 1 1 1 1 1 2 1 1 5 6 6 6 6 7 6 6 6 6 6 5 2 4 3 1 1 2 3 3 3 7 12 10 13 15 15 15 13 12 10 11 10 9 11 9 8 6 6 9 10 10 13 15 14 13 13 13 12 12 11 10 11 11 11 11 11 11 11 11 11 11 13 14 14 14 15 14 14 14 14 15 15 14 14 14 14 14 13 14 14 14 14 14
3 4 4 5 2 1 0 1 0 2 0 1 0 5 7 6 7 8 7 7 6 3 4 5 3 2 2 1 3 1 3 3 4 3 7 11 10 15 16 16 15 13 13 11 12 11 10 12 10 9 7 7 9 9 9 13 16 15 13 12 12 12 12 10 10 10 11 12 12 12 12 11 10 10 12 14 13 14 14 14 13 13 14 13 14 14 14 14 14 14 13 13 13 14 14 14 14
5 5 4 2 1 1 1 1 1 2 2 1 1 3 6 6 7 10 9 8 4 2 2 2 1 2 2 1 2 1 1 2 5 6 8 11 12 16 17 16 15 13 13 12 12 11 11 12 10 9 7 8 9 9 10 11 14 14 12 11 12 12 12 11 10 11 11 11 11 11 11 10 9 10 13 15 14 14 13 13 13 12 13 13 13 13 13 13 13 12 12 12 13 13 14 14 14
3 2 3 4 3 1 2 1 1 1 2 1 3 3 6 7 8 11 11 8 3 1 1 1 1 1 1 2 2 1 1 1 3 6 9 12 15 17 17 16 14 14 13 12 12 10 12 11 10 9 8 9 10 10 10 10 13 14 12 12 11 11 11 11 10 10 9 9 9 10 11 10 11 14 15 14 14 13 12 12 12 12 13 13 12 12 12 12 12 11 11 12 12 13 13 14 14
2 1 1 1 2 1 1 1 1 0 2 1 2 2 2 6 8 11 11 6 3 3 2 3 2 3 1 1 2 3 1 2 2 7 12 14 17 17 16 16 15 14 13 12 12 11 12 11 10 8 7 9 10 10 10 10 12 13 13 12 11 11 11 10 8 8 8 8 9 9 10 9 12 16 14 13 13 13 12 12 12 12 13 12 10 10 11 11 11 11 12 12 12 12 12 13 13
1 1 2 1 2 1 1 1 0 0 1 0 1 1 0 4 6 9 11 4 3 4 3 5 3 2 3 3 0 3 2 2 4 11 15 15 17 17 16 16 16 15 13 12 12 11 12 11 9 8 7 9 10 10 10 9 10 12 14 13 12 11 11 10 7 7 9 8 9 9 9 10 13 15 14 13 12 12 11 12 12 12 12 11 10 10 11 10 10 10 11 11 11 12 12 12 12
1 2 1 2 1 2 2 2 1 1 1 0 1 1 2 5 5 7 11 6 4 4 4 4 3 2 3 5 2 3 2 1 9 15 15 16 17 16 16 15 15 15 13 13 13 12 11 11 9 8 7 8 9 9 10 9 10 11 13 13 13 12 12 10 8 9 9 8 9 9 9 11 12 12 13 13 12 10 11 11 11 11 10 10 10 10 10 10 9 9 10 10 10 11 11 11 11
1 1 0 2 2 3 2 2 2 2 1 1 1 2 3 6 5 6 7 6 4 3 5 4 3 4 4 3 2 3 2 5 13 16 17 17 17 16 15 14 14 14 14 14 14 13 11 10 9 8 6 8 9 9 9 9 9 10 11 12 12 13 13 11 10 9 9 9 8 8 8 10 10 10 12 13 12 10 10 9 9 10 10 9 9 9 9 9 8 8 9 9 10 10 10 10 10
2 2 1 2 2 1 1 1 3 2 2 2 4 4 3 6 6 8 7 5 4 3 6 6 2 4 5 3 2 4 4 8 13 15 17 17 16 16 15 14 14 14 13 14 14 12 12 11 10 8 7 7 9 9 9 9 8 8 9 10 11 14 13 12 11 9 8 9 7 7 8 9 9 9 10 12 13 10 8 7 8 10 9 8 8 8 8 7 7 7 8 9 9 9 9 9 8
1 2 2 2 0 0 0 1 2 1 3 3 4 4 4 6 6 7 8 5 5 5 4 4 2 2 3 3 3 4 6 11 12 14 17 16 15 16 15 14 14 14 13 14 14 13 12 11 10 9 8 7 8 9 8 8 8 8 8 8 10 13 13 13 12 9 9 9 7 7 8 7 6 6 8 11 13 9 7 6 7 10 9 8 7 7 8 7 7 7 8 8 8 8 8 8 7
1 1 1 2 1 0 1 0 3 3 3 4 4 5 5 4 2 4 7 6 5 3 2 2 2 3 2 3 3 5 8 12 14 14 16 15 14 14 14 14 13 13 13 14 13 13 12 11 10 9 9 8 8 9 8 8 8 7 7 7 9 11 13 13 11 10 9 8 8 7 6 5 4 4 6 10 12 9 8 6 6 8 9 8 7 7 7 6 6 6 7 7 8 8 7 6 6
1 1 1 3 2 2 2 0 2 3 3 5 5 6 5 1 1 3 4 4 3 3 2 2 1 1 1 3 4 6 11 15 15 15 15 14 13 13 13 13 12 12 13 14 14 13 13 12 11 10 10 8 8 8 8 9 8 8 7 7 8 10 12 11 10 9 8 7 7 6 5 4 3 4 5 9 11 9 7 6 5 7 8 8 6 6 5 5 5 5 6 7 7 7 6 6 5
1 2 1 2 2 2 3 1 2 2 3 6 4 4 6 3 1 2 1 2 3 3 1 3 1 2 2 0 3 5 14 17 15 15 15 15 14 13 12 12 11 11 13 15 14 13 13 13 12 12 11 10 10 9 9 9 9 8 8 8 8 8 10 10 9 8 7 6 5 5 4 3 3 3 5 8 10 9 7 6 5 5 6 7 7 5 4 3 3 4 5 6 7 7 7 7 6
1 2 2 2 2 3 4 5 4 2 4 6 5 6 7 6 1 0 1 2 3 4 2 2 2 2 2 3 3 6 15 17 16 17 16 16 15 14 13 13 12 11 13 15 15 14 13 14 13 12 12 11 10 10 9 9 10 10 8 8 8 8 8 8 9 8 7 6 5 4 4 4 4 4 5 7 8 8 7 6 5 5 4 5 6 4 4 3 3 4 5 6 6 7 6 6 6
2 2 3 3 3 3 4 6 4 1 5 8 7 9 7 7 5 2 3 3 3 3 3 2 2 3 0 2 2 9 15 17 17 18 18 18 16 15 15 14 15 14 14 16 16 15 14 14 14 13 13 13 12 10 10 9 10 10 9 9 9 8 8 8 8 8 7 6 5 5 5 5 5 5 5 5 6 8 8 7 6 5 4 4 5 5 3 2 3 4 4 4 5 5 5 4 5
1 2 2 3 3 2 1 4 3 0 4 9 8 6 4 4 6 4 4 5 4 5 5 4 4 5 4 1 5 12 14 17 18 18 19 19 17 16 16 15 16 16 16 16 17 16 15 14 15 15 15 15 14 11 10 10 10 10 9 9 9 9 9 8 8 8 7 7 6 5 6 5 5 5 5 4 5 6 8 8 6 5 5 4 5 6 4 4 4 4 3 3 4 4 4 4 4
0 2 4 2 2 2 1 2 3 1 2 9 8 4 2 2 4 4 4 3 4 7 5 6 7 8 8 6 9 14 15 17 18 17 18 19 18 17 17 17 18 18 17 16 16 16 17 16 15 15 16 15 15 13 12 11 11 10 9 9 9 10 10 9 9 9 8 8 7 6 6 6 5 5 4 3 4 5 7 7 6 5 5 5 5 5 5 7 5 4 4 3 3 3 3 4 4
1 1 1 3 2 2 2 1 2 1 1 5 8 6 4 3 2 4 4 4 5 7 6 6 6 7 10 9 12 16 17 19 18 18 19 19 18 17 16 16 17 16 16 16 16 16 17 17 15 15 16 16 16 14 13 13 12 11 10 10 10 10 12 11 10 10 9 9 8 8 7 6 6 6 5 5 5 6 7 7 6 5 4 5 5 5 5 7 5 4 5 5 5 4 4 4 4
2 1 2 3 1 1 3 1 2 1 0 4 8 7 6 5 3 3 5 6 2 1 1 3 3 2 9 11 14 17 18 20 20 19 20 20 20 18 16 15 15 14 15 16 16 16 16 16 16 15 16 17 17 15 14 14 13 12 11 11 10 10 12 13 12 11 10 10 10 9 8 8 8 8 7 7 7 7 7 7 7 6 5 5 6 6 6 6 6 6 7 7 7 7 6 6 6
2 2 2 2 1 1 2 1 2 2 3 7 6 5 6 6 4 1 6 8 1 4 3 2 1 1 8 13 15 17 18 20 22 23 23 22 21 20 18 16 16 15 15 16 16 15 15 16 16 16 16 17 17 15 14 14 14 12 11 11 11 11 11 13 14 13 13 11 11 10 10 10 9 9 9 9 8 8 8 8 7 7 7 6 7 8 8 8 8 8 9 9 9 9 8 8 8
1 3 3 2 2 2 1 0 1 2 3 4 3 4 5 6 4 2 6 8 3 3 2 3 1 3 8 12 14 16 18 21 22 23 22 21 21 20 18 17 16 15 15 16 16 15 16 16 16 17 17 18 17 17 16 14 13 13 12 12 12 12 11 11 13 15 15 13 12 12 12 11 11 10 10 10 9 9 9 9 8 8 8 8 7 9 10 10 10 10 11 10 10 10 9 9 9
1 4 4 2 2 3 2 1 2 1 1 2 3 4 2 1 2 1 6 5 2 1 3 2 3 6 8 10 12 14 16 18 19 20 20 19 18 18 19 18 16 16 17 17 16 16 17 17 17 17 18 18 16 17 18 16 15 13 14 14 12 13 12 11 11 13 16 16 15 14 14 13 12 12 11 11 10 10 10 10 9 9 9 8 8 9 10 11 12 12 12 11 11 11 11 11 11
3 5 5 4 3 3 2 3 3 1 2 1 4 5 3 2 1 4 3 2 2 2 1 1 3 7 7 8 11 13 14 16 17 18 19 18 18 19 20 20 19 19 19 17 17 16 16 17 18 18 19 18 16 16 19 19 17 15 15 15 13 12 12 12 12 12 15 18 18 16 15 15 14 14 13 12 12 11 11 11 10 10 10 9 9 9 10 11 12 12 12 12 12 12 12 12 12
7 9 8 6 4 2 1 3 3 1 3 2 3 5 2 2 2 4 3 4 3 2 2 1 3 6 7 7 9 10 12 14 16 16 17 18 18 20 21 21 21 21 20 19 19 17 17 18 19 19 19 18 17 17 19 19 18 17 16 15 15 14 12 12 12 12 13 15 19 19 17 17 16 15 15 13 13 13 12 12 12 11 11 11 10 10 10 11 12 13 13 13 13 13 13 13 13
10 11 10 7 4 5 3 4 3 1 3 3 1 3 2 2 3 2 4 3 2 2 2 1 3 4 4 6 7 8 9 11 13 14 17 20 20 20 21 22 21 20 20 20 19 18 18 19 19 19 19 20 20 19 19 19 19 19 17 15 16 16 14 13 12 12 13 13 19 22 19 19 18 17 17 15 14 14 14 14 13 13 13 12 12 12 11 11 12 14 14 14 14 13 14 15 14
7 6 7 5 2 5 4 2 1 3 2 2 1 2 3 6 6 2 4 2 2 1 3 2 3 3 3 5 5 6 8 9 12 15 18 19 18 18 20 20 19 20 19 19 18 18 18 18 19 19 19 21 21 20 18 19 20 21 19 16 17 18 17 15 13 13 13 13 19 22 21 21 20 19 18 17 16 15 15 15 15 15 14 14 13 13 12 12 13 14 15 15 15 15 15 16 16
5 1 2 5 4 2 4 2 2 1 1 3 3 4 4 6 4 3 4 2 1 2 4 3 3 3 4 4 4 6 8 10 13 16 16 16 16 16 17 17 18 19 17 17 19 19 18 17 17 18 19 21 22 22 20 19 20 21 21 18 17 19 18 16 15 14 13 13 16 20 21 22 22 21 20 18 18 17 17 17 16 17 17 16 15 15 14 14 14 15 15 15 16 16 15 16 16
5 4 1 2 4 3 3 3 3 1 1 3 3 5 4 3 2 3 3 1 2 4 3 3 3 3 4 4 5 6 8 11 14 15 14 14 14 14 15 16 17 19 18 17 19 19 18 17 16 16 19 20 21 23 23 22 21 21 22 21 20 21 21 19 17 16 15 15 16 19 21 21 22 22 22 20 20 20 19 19 18 18 18 17 17 17 16 16 16 16 17 16 17 17 16 17 18
2 4 4 1 3 3 3 3 3 0 2 1 3 5 5 2 2 4 3 2 1 5 4 2 3 4 4 4 6 6 7 10 13 14 15 15 16 16 17 17 18 21 21 20 19 19 18 18 17 17 18 18 19 22 23 23 22 22 22 23 23 23 24 23 20 18 17 16 16 18 20 19 20 21 22 22 22 22 23 22 20 18 18 19 19 19 19 19 19 18 19 17 17 19 19 20 21
1 3 4 3 4 4 2 2 3 3 1 1 3 3 3 1 2 3 1 2 2 4 5 4 4 3 4 4 5 5 6 7 10 15 18 19 20 21 22 21 21 23 23 21 20 21 20 19 18 18 18 18 18 19 21 22 22 23 22 23 24 25 26 26 23 21 20 19 17 17 17 18 18 19 21 22 22 22 23 23 22 20 19 20 21 21 21 21 21 20 21 21 19 20 21 22 23
3 1 2 2 3 4 3 3 2 3 1 4 3 4 6 1 1 1 1 0 2 5 5 5 4 3 4 4 4 5 6 6 9 13 16 18 22 25 25 23 23 23 24 23 23 23 22 20 19 19 19 18 18 18 19 21 21 22 23 23 24 25 27 28 26 25 24 24 23 19 17 18 19 19 20 21 23 24 23 23 23 23 22 22 23 24 23 22 22 22 23 23 23 22 21 21 21
9 6 4 2 2 3 3 3 1 1 2 4 4 6 11 7 5 5 1 1 3 7 6 5 5 5 5 4 5 5 5 8 8 8 10 14 19 23 23 24 24 25 26 26 25 24 23 22 20 18 19 19 19 18 18 20 20 22 23 23 24 25 27 28 28 27 26 26 26 25 23 20 20 21 22 23 23 24 27 28 26 25 25 26 27 27 26 25 24 24 25 25 26 26 23 20 19
11 8 5 6 5 4 1 2 2 1 3 6 7 7 10 10 9 8 2 2 3 7 6 6 6 6 6 5 5 5 7 8 5 5 9 11 14 17 19 21 23 25 26 26 25 26 26 24 21 19 18 18 19 18 19 20 21 22 23 23 25 26 26 27 27 26 26 27 27 27 26 23 22 23 23 26 26 24 26 30 30 29 29 30 31 30 29 28 28 27 27 28 28 28 27 25 24
9 7 4 4 5 3 2 2 3 2 3 5 5 7 10 10 11 10 4 3 5 9 8 8 7 6 6 6 6 6 7 6 3 6 9 9 10 11 12 14 17 19 22 23 24 26 27 25 23 22 20 17 19 20 20 21 22 23 23 24 25 24 24 25 26 26 26 26 26 27 27 24 26 27 26 29 31 28 27 29 31 32 32 32 32 33 31 30 31 30 29 30 29 29 30 30 29
8 6 5 3 2 2 3 1 2 2 3 2 0 5 11 12 11 11 6 4 7 9 8 8 7 6 5 6 7 6 5 4 4 6 7 7 9 9 9 11 13 15 17 20 22 24 25 25 25 25 22 19 20 21 21 21 21 21 21 21 21 20 20 22 24 26 27 27 27 28 28 26 25 27 29 30 31 31 30 31 31 31 32 33 34 35 34 33 34 33 31 31 30 30 30 30 29
6 4 4 3 2 3 3 2 2 1 2 1 1 4 10 10 10 10 8 7 7 5 5 6 6 6 6 5 5 5 6 5 5 6 5 5 7 8 9 11 13 15 16 17 19 20 22 24 26 25 24 23 21 20 21 22 20 20 19 18 17 17 17 19 21 23 24 25 25 26 27 27 26 25 25 25 26 27 28 28 28 29 31 33 35 35 35 36 36 34 33 33 31 29 29 29 30
4 4 5 3 3 3 2 4 3 1 0 1 1 4 8 8 9 8 5 5 4 2 4 7 6 8 8 6 5 6 8 7 6 6 5 4 5 6 9 10 12 14 16 18 18 19 20 22 24 24 24 25 23 21 20 20 18 18 18 17 16 16 17 18 19 20 22 23 24 25 25 25 26 27 27 26 25 27 28 27 26 27 29 33 36 36 36 37 37 36 34 35 32 27 27 29 32
0 3 4 3 5 3 1 5 5 1 1 1 1 5 6 4 5 5 1 1 3 2 3 5 4 5 6 6 5 5 7 7 7 6 4 3 4 5 7 10 12 13 15 17 18 20 20 21 22 23 24 25 25 23 19 17 17 17 17 18 19 19 20 21 20 21 21 23 24 25 25 25 25 26 28 29 29 31 33 32 31 30 30 32 34 36 38 38 37 37 35 36 35 32 32 31 30
2 4 2 3 8 7 4 7 5 3 3 1 1 5 3 1 3 4 1 1 2 0 1 0 0 1 3 3 3 3 4 5 6 6 5 4 4 4 4 6 10 11 13 14 15 17 19 19 20 20 22 23 24 23 19 15 16 17 17 18 19 20 20 22 22 21 21 22 23 24 24 25 25 25 26 28 30 31 32 32 34 35 34 34 32 32 36 38 38 37 36 36 37 36 35 27 25
3 2 2 4 7 9 9 8 4 2 2 1 1 4 3 1 3 2 1 3 1 1 1 2 2 2 2 2 3 3 2 2 3 3 3 2 2 1 1 2 4 7 9 10 11 14 16 17 17 17 19 19 19 21 18 14 15 17 17 17 18 18 19 19 19 18 18 19 19 20 21 22 24 26 27 27 29 29 29 30 31 33 34 34 32 32 36 38 37 35 35 37 38 37 35 26 22
3 0 3 7 9 9 9 7 2 0 1 1 0 2 3 4 2 2 1 4 1 3 2 3 3 2 3 3 3 3 2 2 1 1 1 1 1 1 1 2 4 5 6 7 8 10 12 13 14 14 14 15 15 16 15 14 14 15 15 16 17 18 18 17 16 16 17 17 17 17 17 19 21 24 26 26 28 29 30 31 31 32 32 32 33 35 38 38 36 36 36 38 38 35 34 33 30
1 1 2 5 6 6 5 4 2 2 1 3 1 2 4 5 2 1 1 3 3 3 3 3 3 3 3 3 3 3 3 2 2 2 2 2 2 2 3 5 7 8 8 8 8 8 9 10 10 10 10 10 11 11 11 12 13 13 14 15 16 17 18 17 17 18 18 18 19 19 18 19 20 22 25 25 27 29 30 30 30 30 31 31 34 36 37 35 34 35 35 36 37 36 35 37 37
3 4 6 6 5 6 4 2 3 2 3 4 2 2 4 4 2 2 1 2 4 4 4 3 2 2 2 3 3 3 3 2 1 1 2 2 3 5 8 10 10 11 10 10 9 8 9 9 9 8 8 7 8 9 9 10 11 12 13 14 14 15 15 16 18 20 20 20 21 20 19 20 20 21 23 23 24 26 27 28 29 30 30 30 32 32 34 34 33 33 34 35 38 39 38 37 38
8 7 7 8 4 4 3 2 2 1 3 2 3 3 2 3 2 2 2 2 2 5 6 4 3 3 3 3 4 3 3 2 2 2 2 4 6 9 11 12 12 13 13 13 12 12 11 10 9 8 7 7 6 7 9 9 10 11 12 11 12 13 12 12 14 17 19 20 21 21 20 20 20 21 22 23 24 24 25 26 27 29 29 29 29 28 29 30 32 33 34 36 38 38 39 37 38
5 4 6 7 3 2 2 2 0 4 4 1 3 3 2 4 2 1 1 1 1 3 7 7 5 5 4 4 3 3 2 2 2 3 4 6 8 10 11 13 14 15 15 15 15 14 13 12 11 9 7 6 6 6 7 8 9 10 10 10 10 11 11 11 13 14 15 16 18 19 19 20 21 22 23 24 26 26 26 25 26 27 28 28 27 28 30 31 33 35 35 35 36 36 37 36 36
1 5 8 6 3 2 3 2 2 4 2 2 2 1 2 6 5 3 3 2 3 3 4 5 4 4 4 4 4 3 2 2 3 4 5 6 7 8 10 12 15 16 16 16 16 16 15 13 12 10 8 6 5 4 4 4 5 6 8 9 10 11 11 11 13 14 14 14 14 15 16 17 20 23 25 26 26 26 26 26 26 26 29 30 29 28 31 31 28 28 30 31 33 34 35 35 37
6 7 7 5 5 4 5 3 1 3 0 2 1 1 2 4 4 6 7 3 2 1 1 2 1 2 3 3 3 2 2 2 2 3 4 5 6 8 10 14 16 17 17 16 16 16 15 14 13 12 10 8 7 5 3 2 1 3 5 7 9 11 12 13 13 13 13 13 13 14 14 15 16 19 20 20 20 20 21 23 23 23 25 27 28 28 30 30 26 24 24 26 28 30 31 33 36
3 1 1 3 4 3 4 3 1 2 2 3 1 2 3 2 1 1 2 1 2 1 1 2 2 1 2 2 1 0 2 3 2 3 4 5 6 7 10 13 16 16 17 17 17 16 16 15 14 13 12 10 8 6 4 2 0 2 4 6 8 10 12 13 14 14 13 13 13 13 14 14 13 14 15 15 15 15 16 19 20 20 21 21 23 24 26 28 29 28 27 26 26 26 26 29 31
1 2 1 2 1 2 2 0 0 1 1 2 3 3 3 2 1 1 0 1 1 3 2 2 2 1 1 1 2 2 3 3 2 3 4 5 6 7 8 10 13 15 16 17 17 16 16 16 14 13 12 10 8 7 5 4 2 2 3 5 7 9 10 12 13 13 13 14 13 13 14 13 13 13 14 14 14 14 15 16 17 18 19 19 20 20 20 22 24 26 27 28 29 28 27 29 31
2 2 3 2 1 4 4 1 1 0 2 2 2 3 3 2 3 2 2 2 3 4 4 4 4 5 5 5 5 4 4 3 3 3 5 5 6 7 8 10 13 15 16 16 16 16 16 15 14 13 12 10 9 7 6 5 3 2 2 3 4 6 7 8 9 10 11 11 11 12 13 13 14 13 14 15 15 16 16 16 17 18 19 19 19 19 19 20 20 21 23 25 28 30 31 32 33
2 3 5 3 1 1 2 1 1 0 3 1 2 3 2 2 3 1 4 5 5 5 6 6 6 7 8 7 6 5 5 4 4 5 5 6 7 8 9 11 14 16 16 17 17 17 16 15 14 13 12 11 9 8 7 6 5 4 2 1 1 3 4 5 6 6 7 8 9 10 12 13 13 12 13 14 15 16 16 17 19 20 20 21 21 22 22 21 20 21 22 23 24 26 30 34 34
1 1 3 3 2 2 2 2 2 2 3 2 2 2 3 4 4 2 5 9 8 7 7 7 8 9 9 8 7 6 5 4 5 5 5 6 7 8 9 12 15 16 17 18 18 17 17 16 15 14 14 12 11 10 10 9 8 7 7 5 4 3 3 4 5 6 6 7 7 9 10 12 12 12 12 13 14 15 15 16 17 19 20 21 22 23 24 24 24 25 26 26 25 24 27 31 34
2 1 2 1 1 2 2 2 1 3 3 2 1 1 3 6 5 4 7 10 10 9 8 9 11 12 10 9 8 6 5 5 5 4 4 6 7 8 10 13 15 17 18 18 18 18 17 16 15 15 14 13 12 12 11 11 10 9 9 7 6 6 5 5 5 5 6 6 6 7 9 10 10 11 12 13 14 14 15 16 17 18 19 20 21 22 23 24 25 26 28 29 29 27 28 30 32
3 4 5 3 1 1 1 1 1 1 3 2 2 2 2 3 4 5 4 5 7 9 10 9 10 11 10 8 8 7 6 6 5 4 4 5 6 7 11 14 17 17 18 18 17 17 16 16 15 15 14 13 13 13 12 12 11 11 10 10 9 9 8 8 7 7 7 8 8 8 9 10 10 10 11 12 13 13 14 15 16 18 18 19 21 22 23 24 26 27 28 30 31 31 32 33 33
2 3 5 5 4 3 3 4 1 1 1 2 1 3 3 1 1 3 2 2 3 6 8 9 9 9 9 7 7 7 7 6 5 4 4 4 5 6 10 14 17 17 17 17 17 17 16 16 16 15 15 15 14 14 14 13 13 13 13 13 12 12 11 10 10 10 9 9 9 9 10 11 11 11 11 12 12 13 14 14 16 17 18 19 20 21 23 24 26 28 29 30 31 31 32 34 33
Wind_Direction
65 134 112 122 150 147 27 319 197 102 265 167 101 177 144 103 24 168 157 147 157 132 106 93 138 143 126 339 330 0 0 355 1 347 67 74 126 141 150 145 147 147 147 150 157 154 150 153 143 138 130 113 118 126 127 120 113 114 110 107 109 110 110 102 99 99 98 101 99 97 98 98 98 96 95 94 91 89 89 87 86 85 85 83 81 82 81 83 85 86 87 88 88 87 86 87 88
109 142 125 115 116 225 194 314 257 138 227 160 138 181 114 136 191 185 160 147 107 101 123 126 140 151 44 358 300 214 69 28 11 27 64 113 132 141 154 146 149 149 148 152 154 152 153 159 150 135 122 120 114 123 127 121 117 114 112 112 112 111 109 105 104 102 102 103 98 98 100 100 99 97 96 95 92 91 91 89 87 86 88 86 84 84 84 85 88 90 89 88 88 89 89 89 92
147 150 147 125 64 316 127 231 251 164 217 152 139 129 133 176 188 163 126 99 83 108 127 122 140 152 250 228 213 252 74 50 72 89 102 139 142 155 158 148 152 149 150 152 151 151 151 157 149 130 119 124 117 122 129 129 126 118 116 115 114 113 108 107 109 109 105 101 99 98 94 92 91 94 99 99 97 96 95 92 90 90 93 91 88 87 87 88 90 92 92 91 90 91 92 92 95
156 162 186 220 190 153 146 219 273 229 210 128 128 139 172 190 163 122 94 93 105 126 133 145 155 95 293 265 35 328 89 74 146 117 130 154 148 153 154 151 153 149 154 152 152 151 152 160 147 130 127 130 117 115 128 135 131 123 118 117 117 114 112 113 114 118 114 107 102 97 90 86 86 90 98 102 101 100 98 95 93 94 95 94 92 91 91 92 93 94 94 94 94 94 95 96 96
144 148 202 240 230 105 75 129 123 252 199 75 95 141 183 184 141 118 104 120 118 110 120 165 165 79 290 337 352 284 108 85 165 176 148 154 142 147 152 152 153 153 155 153 154 152 158 163 143 131 136 130 118 114 124 132 131 123 118 120 121 117 115 109 103 107 107 104 101 96 92 90 90 95 103 108 107 103 100 97 95 96 98 97 95 94 95 95 97 98 95 95 97 99 99 99 98
119 104 104 121 107 66 194 176 191 227 41 354 344 115 173 170 141 124 119 127 108 45 85 177 129 104 173 96 313 328 78 101 152 179 160 152 147 149 152 153 156 156 153 153 154 152 161 161 141 135 141 130 121 123 125 130 133 124 117 118 121 119 114 108 101 100 99 96 94 93 91 88 87 99 107 110 110 105 102 99 97 101 102 99 96 98 101 98 96 97 94 95 99 101 103 103 102
165 137 77 94 109 291 222 220 237 206 52 358 348 66 153 156 142 130 134 141 134 100 86 160 82 199 142 97 202 69 331 219 135 172 164 152 151 152 154 155 158 156 155 156 155 154 162 158 143 140 144 136 126 128 130 134 136 130 124 120 121 118 114 114 112 108 101 92 90 90 92 92 91 100 106 107 109 107 104 100 100 105 102 100 102 103 102 96 96 98 96 99 103 105 106 107 105
236 225 284 151 127 343 238 237 272 310 50 353 319 9 129 153 158 144 146 154 151 150 133 141 189 232 132 109 214 86 116 201 160 166 157 154 154 157 157 158 160 160 159 160 161 160 162 155 145 148 149 140 130 129 131 134 135 134 130 124 123 121 115 115 119 111 96 95 97 91 100 109 99 102 107 107 110 108 105 101 101 105 103 103 105 102 97 95 99 101 99 101 106 109 110 110 109
19 30 229 194 142 140 208 233 198 15 103 251 248 267 335 173 183 155 149 139 121 142 131 140 184 248 133 161 171 91 173 214 169 160 158 158 158 160 159 163 164 163 163 164 165 162 164 158 151 157 154 143 134 129 127 131 135 136 133 128 126 124 118 114 112 104 105 112 103 94 111 117 103 104 109 110 110 110 106 101 102 105 105 103 102 101 99 102 103 101 101 104 111 114 114 114 114
9 13 181 141 174 199 211 206 161 151 141 217 267 204 184 179 199 162 152 132 123 146 117 123 179 229 147 159 120 105 185 170 160 159 162 161 158 162 161 165 166 165 168 168 165 160 168 167 161 164 157 148 137 129 127 131 136 137 135 133 134 134 131 123 114 112 119 118 109 109 116 115 106 102 107 114 113 111 112 106 106 107 108 110 108 106 105 106 102 101 105 109 117 118 119 119 120
190 55 138 163 193 208 215 188 153 135 122 217 206 171 173 182 182 148 146 128 132 144 133 163 188 171 162 158 129 96 97 155 163 162 163 163 161 163 163 165 167 170 172 169 166 162 170 175 170 168 166 157 145 137 133 133 136 137 137 137 142 145 142 132 122 122 121 115 125 131 117 110 107 97 98 114 116 116 124 114 107 108 111 114 111 111 111 109 102 105 111 113 120 123 125 127 128
197 114 203 187 194 234 262 176 147 125 137 182 161 149 168 186 174 154 158 139 149 165 161 191 181 150 164 158 136 108 134 168 168 167 165 164 163 164 165 166 168 175 177 170 168 165 168 177 176 175 178 168 154 146 139 137 136 138 140 141 148 150 148 141 131 133 130 125 135 130 117 110 107 100 92 112 119 117 135 130 115 112 111 115 116 121 119 112 109 112 115 118 123 125 128 133 137
190 141 188 166 112 334 133 160 135 131 168 168 141 135 169 184 177 163 158 136 157 178 163 170 153 207 176 128 118 132 170 179 173 171 168 166 164 165 165 166 169 176 179 171 170 170 170 177 179 182 185 176 163 155 147 143 140 142 143 143 152 154 153 147 141 143 141 135 135 126 126 120 113 107 91 114 125 121 140 149 131 119 112 114 117 122 119 114 116 116 118 122 125 127 131 137 140
155 161 199 139 87 170 172 130 153 188 161 132 119 135 179 194 156 147 160 165 171 160 95 120 174 225 177 139 160 173 178 176 175 172 169 168 163 165 166 166 170 175 180 176 174 173 174 179 178 185 188 179 173 165 158 154 147 149 150 148 156 159 158 155 149 147 145 140 139 138 140 135 127 114 96 120 134 134 141 150 146 134 122 116 115 121 124 123 120 117 120 126 130 133 137 140 139
141 148 60 128 145 171 190 358 162 202 151 133 135 149 176 174 66 159 176 192 145 70 77 137 228 253 194 176 165 163 164 166 172 169 167 167 164 166 166 167 170 174 181 179 181 180 179 181 181 186 186 180 179 174 172 170 162 160 161 159 160 162 164 165 156 149 153 151 145 148 152 148 135 116 98 119 141 147 145 153 160 149 137 130 132 133 136 135 129 126 127 136 140 140 140 140 141
144 152 105 145 169 191 185 167 178 201 149 136 128 166 169 132 232 184 12 322 111 94 195 159 186 297 336 60 59 115 149 158 166 166 164 164 162 164 166 170 172 174 182 182 185 186 183 184 186 187 186 186 182 181 181 178 175 170 170 169 167 167 169 171 165 156 158 159 154 154 151 142 130 119 98 114 146 160 155 163 171 171 163 149 146 148 153 151 142 136 134 145 151 149 149 149 151
224 182 167 170 182 198 176 173 186 158 131 137 146 192 176 140 187 246 47 290 117 130 214 130 132 280 2 58 43 113 145 155 162 164 164 164 162 163 168 175 176 178 184 186 188 188 188 188 189 189 189 189 185 185 184 184 183 178 179 179 176 175 174 175 175 170 167 168 166 160 147 137 128 124 113 113 147 175 176 179 186 191 192 162 152 160 167 162 144 138 140 149 155 156 154 155 160
218 180 181 191 174 180 176 174 185 113 143 156 170 197 187 149 156 167 172 171 118 151 189 170 166 211 181 48 108 142 151 158 164 167 168 169 169 168 172 178 182 184 186 188 190 190 190 190 191 193 193 190 188 187 186 189 187 182 186 188 185 184 180 179 182 182 181 179 177 174 158 152 144 139 141 122 143 183 194 200 202 198 203 185 168 174 179 165 149 151 154 148 145 149 147 151 168
160 139 189 201 168 141 156 162 159 359 139 148 162 196 204 154 150 171 192 156 150 194 189 191 206 185 168 104 143 151 158 165 168 174 175 178 180 177 177 180 185 187 188 189 191 192 191 191 192 194 196 192 191 191 190 191 188 185 190 192 192 190 186 186 189 191 193 192 188 182 173 175 169 159 169 154 150 183 203 212 215 208 208 208 189 184 185 170 169 175 160 134 132 142 148 155 172
292 196 198 162 145 112 64 169 148 359 114 145 153 175 197 131 135 170 191 151 179 215 200 190 213 197 169 140 151 159 164 171 177 181 184 187 189 188 185 184 187 189 190 190 191 193 193 193 193 195 197 194 193 195 194 193 191 190 193 195 196 196 194 193 195 197 198 200 196 188 190 198 190 183 198 192 161 175 202 220 227 226 222 225 202 185 190 190 197 190 150 137 150 163 173 174 176
165 215 194 101 134 135 126 184 123 54 273 153 140 150 166 127 143 175 172 176 206 224 220 214 221 192 165 147 160 168 170 177 185 190 191 194 196 198 197 192 191 191 190 192 194 194 194 194 195 196 197 196 197 197 198 197 194 193 197 198 198 202 202 199 200 204 204 203 201 201 206 211 200 198 205 198 183 178 195 214 221 215 206 218 205 182 192 201 206 188 167 178 190 191 192 191 187
134 56 17 77 181 143 111 128 134 132 204 151 144 153 149 125 160 182 193 210 214 146 206 253 269 157 156 155 164 172 178 183 188 194 197 198 200 202 203 200 197 194 193 195 197 197 197 197 196 198 198 199 201 200 202 202 199 197 200 200 200 205 208 207 205 206 210 208 207 210 214 216 209 207 208 204 200 196 198 204 212 213 210 216 206 192 196 202 197 189 193 201 205 207 206 208 205
155 128 56 80 351 63 96 116 158 178 166 158 154 142 128 148 172 125 222 231 81 77 48 356 322 102 142 149 162 175 184 189 192 197 198 200 202 203 204 202 199 197 198 199 200 200 200 199 199 201 201 202 203 204 206 207 205 202 204 203 202 206 209 210 211 210 213 213 213 215 216 218 216 214 216 215 213 209 207 209 214 221 225 225 213 207 211 211 203 199 208 214 215 216 216 220 221
155 133 124 107 13 36 41 79 155 217 174 140 132 134 139 176 169 91 237 234 126 100 8 7 124 142 143 152 170 182 188 193 196 199 200 202 204 206 207 207 205 202 203 203 201 203 203 202 201 203 205 204 204 206 210 211 210 208 209 209 206 209 209 209 214 215 216 216 217 218 218 220 220 220 222 223 222 216 216 220 221 223 226 228 221 216 219 217 212 213 217 221 223 224 227 228 230
80 125 134 133 48 60 64 105 131 168 121 107 149 143 120 147 117 178 236 219 140 345 349 25 133 147 163 173 180 185 191 196 198 200 202 205 207 209 210 211 212 209 208 206 203 206 206 204 204 205 207 207 206 208 211 213 214 211 213 215 211 213 212 211 216 217 219 220 220 220 220 222 222 224 227 228 228 224 226 230 228 228 231 235 230 223 222 218 218 221 222 224 227 230 233 234 235
106 115 126 124 92 72 86 96 91 100 91 166 171 122 78 103 78 251 217 87 4 317 360 27 163 167 181 187 188 190 193 196 196 199 202 205 206 208 211 212 214 214 213 211 209 210 208 207 207 208 209 209 209 209 212 215 217 215 215 219 215 215 215 215 217 216 220 223 223 224 222 225 227 229 232 233 235 233 235 238 235 234 238 241 238 234 230 222 222 224 225 227 231 234 236 237 237
107 112 102 94 101 73 47 101 77 82 83 334 189 120 77 129 230 240 125 51 336 234 150 331 216 194 190 189 195 197 199 198 193 195 200 204 208 210 211 210 213 214 214 214 214 213 210 209 209 211 212 212 211 212 215 216 218 219 217 219 220 219 216 216 218 218 220 222 224 226 225 227 230 232 235 237 238 240 242 242 239 240 243 245 242 242 241 232 227 228 230 230 232 234 238 242 238
117 124 103 77 96 86 44 95 72 335 96 355 307 126 80 125 225 219 99 42 344 207 169 129 235 228 205 194 197 201 208 201 191 195 200 203 207 208 208 207 209 211 213 215 215 214 214 213 211 213 214 215 215 215 218 218 220 223 220 220 225 224 221 218 219 220 220 221 224 226 226 229 232 234 237 239 241 242 246 245 245 245 246 249 248 247 249 243 238 237 236 235 236 237 240 244 241
121 133 114 97 126 94 36 56 5 315 106 354 320 179 211 201 217 147 88 8 16 213 194 166 222 243 238 213 207 208 208 198 194 204 208 208 207 207 207 204 203 206 212 215 216 216 215 216 215 215 215 217 219 218 220 223 223 226 224 223 225 227 227 223 221 223 224 224 227 226 226 229 232 236 239 241 243 243 247 247 250 251 250 252 253 252 252 249 246 244 244 241 240 240 241 245 243
126 114 116 128 177 137 30 1 308 300 94 331 271 236 228 198 211 84 63 343 319 231 197 185 206 213 231 225 223 220 209 204 207 213 213 212 211 210 208 203 200 201 205 210 214 216 214 214 215 217 217 217 220 220 221 226 226 227 228 226 224 226 228 225 225 225 224 226 230 230 228 229 231 235 239 242 244 245 248 249 250 251 252 255 255 254 252 249 248 247 247 244 243 243 241 243 244
129 133 166 141 192 173 56 9 313 194 120 323 247 245 262 168 128 64 33 358 241 248 214 191 201 205 224 221 232 233 219 217 220 224 221 219 219 217 213 207 203 202 203 206 210 213 214 216 215 217 220 218 220 221 222 225 227 229 230 230 230 229 227 228 230 230 232 235 238 240 238 235 233 233 237 241 244 245 246 248 250 251 255 257 256 253 250 248 248 248 248 244 243 246 241 242 245
111 158 172 157 213 172 79 37 342 348 120 329 240 243 263 267 68 78 38 25 227 249 247 243 228 216 220 217 230 235 231 229 231 236 233 229 228 226 223 216 211 212 212 211 210 212 215 219 219 221 223 221 222 224 225 226 228 231 232 234 236 238 236 235 235 233 236 238 243 251 253 251 245 240 238 239 244 248 248 249 249 253 258 259 256 254 250 248 249 248 250 247 243 248 247 248 251
181 221 166 157 198 178 138 107 6 351 112 211 245 265 265 347 45 91 64 16 358 278 260 257 241 224 223 221 228 235 239 233 234 238 236 235 234 234 232 227 223 224 222 218 217 218 217 219 223 225 226 225 226 226 228 228 228 231 234 236 239 242 244 243 242 239 239 242 247 251 253 259 258 253 250 245 244 249 255 256 252 250 254 257 256 256 253 250 251 250 251 250 245 247 250 251 252
164 257 125 151 199 181 181 148 58 342 243 212 210 256 255 198 117 210 198 17 318 293 274 263 254 246 230 220 227 232 238 238 235 234 232 234 238 241 240 237 233 232 231 228 227 227 224 221 223 227 229 228 228 229 230 231 231 232 234 237 240 243 245 245 246 246 244 246 251 250 251 259 258 255 258 255 250 248 252 255 253 248 247 249 252 254 253 250 251 251 251 253 250 245 246 248 248
171 179 161 153 205 214 217 151 100 330 221 221 202 235 253 247 241 249 219 125 277 275 276 278 272 268 256 241 239 231 234 242 240 234 234 239 244 247 246 244 241 238 237 236 233 232 230 226 223 227 230 229 230 232 233 234 236 236 237 238 240 243 245 244 244 246 246 246 249 248 250 257 256 253 254 253 251 248 248 248 246 246 244 242 245 247 247 246 246 248 248 250 250 246 243 245 245
169 167 157 151 170 205 229 95 48 314 206 221 222 236 257 259 260 263 222 141 267 271 274 275 266 264 260 249 243 236 237 241 243 252 255 253 251 252 250 247 245 242 241 240 236 234 233 230 225 224 228 229 228 230 232 234 235 237 237 238 238 240 242 244 242 242 242 243 245 246 248 254 254 252 252 250 247 248 252 249 243 244 242 238 240 241 243 245 246 247 247 246 246 246 244 244 246
144 137 131 149 171 166 115 89 45 343 229 221 232 256 269 268 269 272 245 162 256 264 262 259 254 251 248 247 248 242 242 251 285 278 267 263 262 262 256 249 245 243 241 237 235 235 234 230 227 225 224 224 225 226 228 229 229 231 233 235 237 239 241 243 244 242 242 244 249 250 249 253 251 247 248 248 245 245 250 248 243 245 247 243 242 244 245 246 247 245 244 243 242 243 245 247 247
135 148 144 144 194 133 95 99 65 11 249 208 98 271 266 264 267 269 250 208 237 246 247 252 255 252 247 248 253 254 259 272 280 267 261 262 267 264 258 251 242 238 237 235 234 235 233 230 229 228 224 222 224 224 226 227 227 226 229 233 236 240 242 243 245 246 246 248 251 251 250 255 257 252 250 248 246 246 249 249 247 248 251 249 247 247 246 246 246 245 242 240 240 242 246 249 247
137 142 144 153 173 127 110 125 96 37 255 211 96 271 269 265 265 261 248 239 239 239 258 269 272 266 260 256 260 271 274 275 267 257 248 250 262 258 252 250 244 240 238 238 237 234 232 231 232 230 225 223 223 223 225 228 228 227 230 235 237 241 243 243 246 247 248 247 245 246 249 254 259 258 256 255 253 251 253 254 252 251 254 253 249 246 245 245 245 244 242 240 239 241 244 247 247
133 138 153 155 153 158 175 159 136 64 341 314 225 268 275 264 255 248 242 261 270 294 275 265 265 262 268 279 283 280 275 277 273 264 253 245 257 256 249 244 240 239 237 237 236 232 231 233 233 230 228 227 225 223 224 226 229 230 233 236 237 240 243 245 249 248 247 248 248 248 248 247 249 251 250 251 253 252 250 249 248 251 255 256 251 245 244 244 244 244 243 240 236 234 237 243 246
123 186 164 138 163 190 7 124 135 138 155 339 286 265 267 246 242 235 193 271 257 291 269 243 247 253 266 282 278 262 263 273 274 272 275 273 275 265 250 241 236 234 233 234 234 231 230 231 233 232 232 233 231 228 225 224 226 228 231 235 237 240 245 248 249 247 244 246 248 250 252 250 247 248 246 247 250 250 247 244 244 249 253 256 253 247 245 246 247 247 245 241 235 232 236 240 244
192 226 199 151 163 153 105 129 148 183 187 75 327 261 246 149 240 225 119 294 222 328 328 205 320 277 269 284 291 279 263 263 265 274 286 288 291 278 247 233 229 229 230 230 229 227 227 228 230 231 232 234 234 230 225 221 221 223 225 228 231 233 240 244 244 244 245 246 247 248 251 252 251 253 254 256 257 254 251 248 247 249 249 251 252 251 250 247 245 245 244 241 239 239 239 236 237
176 214 151 134 142 133 135 155 172 201 182 72 324 256 246 272 254 176 60 301 266 102 79 64 34 9 4 337 333 331 310 287 264 271 294 299 301 275 180 169 194 210 218 221 221 219 218 220 222 224 227 229 232 230 223 216 217 220 220 224 227 228 234 241 242 244 246 247 249 249 250 251 252 254 254 255 256 255 257 258 256 254 252 251 252 253 251 244 241 246 248 246 244 243 239 231 229
164 296 120 134 134 135 148 158 169 20 88 124 31 304 275 269 258 120 331 277 180 123 105 75 61 47 31 16 8 359 348 344 336 8 34 33 35 67 91 96 121 149 176 189 197 201 204 209 211 214 219 224 228 226 216 210 214 217 219 225 230 232 236 241 244 245 245 246 249 251 254 255 255 255 252 250 252 256 259 258 257 256 255 255 256 256 254 249 248 252 251 247 244 242 240 238 235
114 328 98 120 115 118 134 133 110 49 278 206 127 15 267 252 232 134 305 255 188 145 116 97 74 49 37 40 37 28 24 6 343 4 37 52 51 65 86 89 99 111 124 142 158 171 178 184 190 196 204 212 218 215 208 208 213 215 218 224 229 234 237 241 243 245 248 252 255 255 257 256 256 258 257 255 254 256 258 256 253 252 253 254 253 253 253 250 248 249 247 244 243 243 246 244 240
138 151 101 85 74 75 80 87 103 93 255 222 112 25 264 255 242 180 159 260 222 167 123 108 80 54 32 41 40 36 43 35 14 13 25 48 64 84 93 92 93 98 104 113 125 135 144 152 158 168 181 193 201 202 202 206 210 213 218 223 229 235 239 244 248 250 252 255 258 258 259 259 258 260 261 261 259 257 256 257 258 258 259 259 256 253 251 248 248 252 253 250 247 248 249 247 242
141 152 104 88 65 56 65 42 75 178 239 221 59 13 290 268 258 202 195 261 205 146 136 131 107 89 70 54 41 34 41 40 52 71 76 81 89 91 91 92 91 94 98 101 107 111 115 121 127 138 153 165 178 190 199 206 212 216 220 226 233 239 245 250 253 255 256 257 259 261 262 263 263 262 263 264 263 262 260 258 258 259 260 261 259 256 254 254 258 260 256 251 249 249 250 248 243
140 157 124 107 73 72 109 67 118 223 222 85 35 348 263 238 248 36 30 316 310 149 138 131 122 98 74 58 45 33 28 42 81 95 102 101 98 93 90 90 91 92 94 95 97 100 102 106 111 118 127 141 159 177 194 207 218 224 230 236 241 246 249 252 255 258 260 261 262 265 265 264 263 264 266 265 263 264 265 262 259 259 260 259 259 259 257 257 259 256 251 248 248 248 248 245 242
178 154 148 141 122 156 190 173 205 233 225 53 9 317 241 244 261 288 264 227 237 226 130 112 111 96 81 62 47 39 31 53 91 95 95 95 91 89 88 86 86 86 86 87 89 91 93 96 99 104 105 110 122 138 168 197 220 232 240 246 251 255 255 254 257 261 262 262 265 267 266 265 264 266 268 268 266 267 266 264 261 260 260 259 258 259 260 260 261 258 253 252 250 249 248 245 244
177 159 163 165 147 172 197 176 233 259 194 59 348 293 242 252 268 261 241 197 163 219 69 46 22 47 51 38 19 14 54 65 82 88 88 87 83 81 82 84 84 83 85 87 88 89 89 89 89 90 87 84 84 83 87 96 243 255 258 261 262 264 265 264 264 264 264 264 265 267 267 267 268 269 270 270 270 269 266 264 263 263 262 260 259 259 260 261 264 267 266 262 259 256 252 248 247
174 152 155 173 165 187 195 178 207 207 105 99 153 232 223 208 93 260 243 77 87 127 47 317 288 326 345 344 316 337 98 89 74 81 81 75 75 76 80 83 83 84 89 93 94 95 96 95 94 93 91 89 88 89 90 86 48 271 269 269 268 267 268 268 268 268 268 267 266 268 269 269 270 272 272 273 273 271 269 268 267 267 266 264 262 262 261 260 261 264 265 264 263 261 255 251 251
143 8 69 200 186 124 118 79 112 114 103 146 183 241 259 262 274 256 338 317 225 145 130 241 225 129 144 154 145 133 116 116 104 93 87 76 73 72 73 79 81 83 88 92 94 96 97 98 99 98 99 101 105 110 116 128 162 211 240 249 256 262 265 269 272 275 278 276 272 270 270 271 272 273 274 276 276 273 273 273 271 271 270 268 266 264 263 262 261 260 260 260 260 259 259 259 258
142 156 178 188 53 102 114 111 51 14 243 182 170 242 271 277 254 206 127 200 188 130 148 191 157 127 147 148 141 144 138 134 124 104 101 97 87 77 73 75 79 85 88 89 89 90 92 96 97 97 97 98 101 105 109 114 128 156 211 241 254 262 267 273 278 281 283 281 278 275 275 276 276 278 281 282 283 282 280 278 276 275 273 271 269 266 265 264 263 262 261 261 261 259 260 260 260
142 172 167 136 69 88 120 156 102 137 242 192 168 236 251 217 218 104 117 173 179 148 156 167 145 141 153 153 151 152 144 137 123 104 97 92 84 78 76 75 78 86 89 88 87 86 88 91 91 89 86 85 84 82 81 79 77 79 72 32 302 284 283 286 289 291 291 290 292 291 289 289 287 285 285 286 288 289 286 285 284 281 277 274 272 271 270 268 266 264 262 261 262 261 260 259 259
9 172 143 125 199 199 168 178 161 183 225 230 194 234 264 218 203 148 165 182 180 161 159 163 156 158 161 157 156 153 142 130 110 93 81 70 67 66 71 77 80 86 89 88 86 85 86 85 83 80 76 73 72 68 66 63 60 57 52 44 32 9 346 334 326 321 321 320 318 311 304 301 300 297 293 293 293 291 290 289 286 284 281 278 277 275 274 273 271 269 268 266 264 263 261 260 260
45 119 137 5 290 206 181 166 172 204 206 224 205 189 236 219 211 212 195 185 174 159 163 174 167 165 166 158 154 152 138 122 102 86 74 61 58 59 68 78 81 84 87 88 87 85 84 83 80 78 76 72 70 67 65 63 59 57 55 51 44 32 21 9 356 347 345 342 333 323 314 308 306 305 302 299 297 296 294 292 288 286 283 281 280 279 276 276 274 272 272 271 269 267 264 263 263
141 164 169 176 125 43 243 151 67 242 196 194 225 228 232 209 207 216 194 169 168 163 169 179 169 159 158 153 153 147 131 120 103 91 84 72 67 64 71 79 81 82 84 84 84 83 81 80 76 75 75 74 71 68 66 65 62 61 59 56 52 45 39 32 22 14 8 1 353 342 331 327 324 320 313 306 304 301 297 295 292 289 287 285 284 282 281 279 277 275 274 273 273 270 268 267 266
161 183 184 180 151 132 188 194 148 359 239 193 209 262 263 153 167 217 183 136 171 173 177 176 160 150 151 153 156 143 127 121 110 104 100 87 79 71 73 79 80 81 80 79 81 80 78 77 75 73 72 71 71 69 68 66 63 61 57 53 51 47 44 42 38 33 27 19 10 359 352 349 345 340 330 321 315 310 304 299 295 291 290 288 286 286 286 284 281 279 278 276 275 273 270 269 268